Estació meteorològica de St. Julià de Cerdanyola-Forcat (Berguedà, parc natural del Cadí Moixeró)

Consulta les dades en temps real de l'estació meteorològica de St. Julià de Cerdanyola-Forcat





Hora UTC 08:55
Temperatura 24.1 ºC
Humitat 65.0 %
Pressió 1023.9 hPa
Pluja 0.0 mm
Velocitat vent 1.6 km/h
Direcció vent W

Dades diàries 2026-09-04



Hora UTC (hivern +1h; estiu +2h)
Temperatura (ºC) Humitat (%) Pressió (hPa) Velocitat vent (km/h) Precipitació (mm)
Hora UTC Aire Humitat Pressió Vel. Dir. Vel. Max Dir. Intent. màx 5 min.
00:05 20.4 77.0 1025.8 0.0 E 0.0 0.0
00:10 20.1 78.0 1025.8 3.2 ESE 4.8 0.0
00:15 20.1 78.0 1025.7 1.6 ESE 4.8 0.0
00:20 20.1 78.0 1025.8 3.2 ESE 4.8 0.0
00:25 20.1 78.0 1025.8 3.2 ESE 4.8 0.0
00:30 20.1 78.0 1025.8 0.0 ESE 4.8 0.0
00:35 20.2 78.0 1025.6 1.6 ESE 4.8 0.0
00:40 20.4 77.0 1025.5 0.0 E 3.2 0.0
00:45 20.5 77.0 1025.4 0.0 E 3.2 0.0
00:50 20.4 77.0 1025.5 0.0 E 3.2 0.0
00:55 20.1 78.0 1025.5 0.0 NE 3.2 0.0
01:00 19.9 78.0 1025.4 0.0 E 3.2 0.0
01:05 19.9 78.0 1025.3 0.0 E 3.2 0.0
01:10 19.8 78.0 1025.4 3.2 NE 6.4 0.0
01:15 19.7 78.0 1025.4 3.2 NE 6.4 0.0
01:20 19.5 79.0 1025.4 1.6 NNE 6.4 0.0
01:25 19.3 80.0 1025.4 0.0 NE 4.8 0.0
01:30 19.7 79.0 1025.4 0.0 NE 4.8 0.0
01:35 19.7 79.0 1025.4 1.6 NE 3.2 0.0
01:40 19.2 80.0 1025.4 0.0 NE 1.6 0.0
01:45 19.3 80.0 1025.3 1.6 NE 1.6 0.0
01:50 19.4 79.0 1025.3 0.0 NE 1.6 0.0
01:55 19.2 80.0 1025.3 0.0 NE 1.6 0.0
02:00 19.1 80.0 1025.2 0.0 NE 1.6 0.0
02:05 18.9 80.0 1025.2 0.0 NE 1.6 0.0
02:10 18.9 81.0 1025.2 1.6 N 4.8 0.0
02:15 18.8 79.0 1025.1 4.8 NE 4.8 0.0
02:20 18.9 80.0 1025.1 1.6 NE 4.8 0.0
02:25 18.8 80.0 1025.1 3.2 ENE 4.8 0.0
02:30 18.9 80.0 1025.0 1.6 ENE 4.8 0.0
02:35 18.8 80.0 1025.0 0.0 ENE 3.2 0.0
02:40 18.6 80.0 1025.0 0.0 ENE 3.2 0.0
02:45 18.4 81.0 1025.1 0.0 ENE 0.0 0.0
02:50 18.3 81.0 1025.0 0.0 NE 0.0 0.0
02:55 18.1 82.0 1025.0 0.0 NE 1.6 0.0
03:00 17.9 82.0 1025.0 0.0 NNE 1.6 0.0
03:05 17.8 83.0 1025.0 0.0 NE 1.6 0.0
03:10 17.8 83.0 1025.1 1.6 NE 1.6 0.0
03:15 17.9 83.0 1024.9 0.0 NNE 3.2 0.0
03:20 17.9 83.0 1025.0 0.0 NNE 3.2 0.0
03:25 17.9 83.0 1025.0 0.0 NE 1.6 0.0
03:30 17.8 83.0 1025.0 1.6 NNE 1.6 0.0
03:35 17.7 82.0 1025.0 0.0 NNW 1.6 0.0
03:40 17.7 81.0 1024.9 0.0 N 1.6 0.0
03:45 17.8 82.0 1024.9 0.0 ENE 1.6 0.0
03:50 17.8 82.0 1024.9 0.0 NNE 0.0 0.0
03:55 17.7 83.0 1024.8 0.0 NNE 0.0 0.0
04:00 17.7 83.0 1024.8 0.0 NNE 0.0 0.0
04:05 17.7 83.0 1024.7 0.0 NNE 0.0 0.0
04:10 17.9 82.0 1024.6 0.0 NE 0.0 0.0
04:15 17.9 82.0 1024.7 0.0 NE 0.0 0.0
04:20 18.0 81.0 1024.6 0.0 NE 0.0 0.0
04:25 17.9 81.0 1024.6 0.0 NE 0.0 0.0
04:30 17.9 81.0 1024.4 0.0 N 0.0 0.0
04:35 18.0 81.0 1024.5 0.0 NNE 0.0 0.0
04:40 18.2 80.0 1024.5 0.0 NE 0.0 0.0
04:45 18.2 81.0 1024.4 1.6 N 3.2 0.0
04:50 18.3 81.0 1024.4 1.6 NNE 3.2 0.0
04:55 18.4 81.0 1024.4 3.2 NNE 3.2 0.0
05:00 18.5 81.0 1024.3 1.6 NE 3.2 0.0
05:05 18.4 81.0 1024.3 0.0 NE 3.2 0.0
05:10 18.5 81.0 1024.3 1.6 NNE 3.2 0.0
05:15 18.6 80.0 1024.2 3.2 ENE 4.8 0.0
05:20 18.2 80.0 1024.2 1.6 ENE 4.8 0.0
05:25 18.3 82.0 1024.1 3.2 ENE 4.8 0.0
05:30 18.4 80.0 1024.2 1.6 ENE 4.8 0.0
05:35 18.6 80.0 1024.2 1.6 NNE 4.8 0.0
05:40 18.7 80.0 1024.2 1.6 E 4.8 0.0
05:45 18.7 80.0 1024.2 1.6 E 3.2 0.0
05:50 18.6 77.0 1024.2 3.2 NE 4.8 0.0
05:55 18.6 77.0 1024.2 3.2 NNE 4.8 0.0
06:00 18.7 78.0 1024.2 3.2 N 4.8 0.0
06:05 18.8 77.0 1024.2 1.6 NE 4.8 0.0
06:10 18.9 76.0 1024.2 0.0 NNW 4.8 0.0
06:15 19.2 76.0 1024.2 3.2 N 4.8 0.0
06:20 19.2 76.0 1024.2 6.4 NNE 8.0 0.0
06:25 19.1 76.0 1024.2 8.0 NE 8.0 0.0
06:30 19.3 76.0 1024.3 4.8 NNE 8.0 0.0
06:35 19.6 76.0 1024.2 3.2 NNE 8.0 0.0
06:40 19.7 76.0 1024.3 4.8 NNE 8.0 0.0
06:45 19.9 75.0 1024.2 0.0 NE 6.4 0.0
06:50 20.3 73.0 1024.2 3.2 NNE 6.4 0.0
06:55 20.4 73.0 1024.2 3.2 NNE 4.8 0.0
07:00 20.7 73.0 1024.1 3.2 NE 4.8 0.0
07:05 20.8 71.0 1024.1 3.2 NE 6.4 0.0
07:10 21.2 71.0 1024.1 3.2 NNE 6.4 0.0
07:15 21.6 70.0 1024.0 4.8 ENE 6.4 0.0
07:20 21.8 69.0 1024.2 1.6 ENE 6.4 0.0
07:25 22.3 69.0 1024.1 3.2 NE 6.4 0.0
07:30 22.4 68.0 1024.0 1.6 NNE 4.8 0.0
07:35 22.8 71.0 1023.9 1.6 SE 4.8 0.0
07:40 22.9 68.0 1023.9 1.6 SE 4.8 0.0
07:45 23.3 68.0 1023.9 0.0 S 4.8 0.0
07:50 23.6 66.0 1023.9 1.6 NNW 6.4 0.0
07:55 23.7 66.0 1023.9 0.0 E 6.4 0.0
08:00 24.1 66.0 1023.8 1.6 SSE 8.0 0.0
08:05 23.9 67.0 1023.8 1.6 S 8.0 0.0
08:10 24.1 67.0 1023.8 0.0 SSE 6.4 0.0
08:15 24.4 66.0 1023.8 1.6 SSE 4.8 0.0
08:20 24.5 64.0 1023.8 1.6 SSE 4.8 0.0
08:25 24.4 62.0 1023.7 0.0 SW 4.8 0.0
08:30 24.8 65.0 1023.8 0.0 SSE 4.8 0.0
08:35 24.9 63.0 1023.7 1.6 SSW 4.8 0.0
08:40 24.9 61.0 1023.8 1.6 WNW 4.8 0.0
08:45 24.2 63.0 1023.8 1.6 WNW 3.2 0.0
08:50 23.8 64.0 1023.9 0.0 WNW 3.2 0.0
08:55 24.1 65.0 1023.9 1.6 W 3.2 0.0
Màxima 24.9 83.0 1025.8 8.0 NE 8.0 0.0
Mínima 17.7 61.0 1023.7
Total 0.0